Wind_Speed
47 46 44 43 40 36 34 35 33 30 32 34 33 31 28 30 34 37 39 42 45 47 51 54 57 61 63 64 65 65 64 64 63 62 61 58 56 54 52 51 50 49 47 46
46 45 44 42 38 35 33 34 32 29 29 31 30 27 26 26 29 33 36 38 41 44 48 52 55 58 61 64 64 64 64 64 64 62 60 58 56 55 53 51 50 49 48 47
46 45 44 41 36 33 31 31 30 28 26 27 27 24 24 24 27 30 33 36 39 41 45 50 53 56 58 61 64 64 64 64 63 62 61 59 57 55 54 52 50 49 48 47
46 45 42 39 34 32 29 28 27 26 26 25 23 22 20 21 25 28 30 34 37 38 42 47 52 55 56 59 62 63 63 64 63 62 60 59 58 55 53 52 50 49 48 47
46 43 40 36 33 30 28 27 26 25 25 23 21 21 19 19 22 25 28 32 35 37 40 45 50 54 55 57 59 61 64 64 63 62 60 60 58 55 53 53 52 49 48 47
45 43 39 35 31 28 27 26 26 25 24 22 19 19 18 17 20 23 25 30 33 35 38 43 48 53 54 56 58 59 62 64 63 63 61 60 59 57 54 52 52 50 48 47
44 41 39 36 31 28 26 25 25 25 23 21 19 17 16 15 18 22 24 27 32 35 37 43 47 51 54 55 57 57 59 62 63 63 61 61 60 57 55 52 51 50 48 46
45 41 39 35 31 27 25 24 24 24 22 21 18 16 15 14 15 20 24 25 30 34 37 42 45 49 54 55 55 57 59 60 62 62 60 60 60 58 54 52 51 50 48 47
45 42 38 35 31 27 25 23 23 23 22 21 20 17 14 14 14 16 21 25 27 31 35 40 44 48 52 55 54 55 57 58 61 62 61 60 59 58 55 52 51 50 49 48
44 42 38 34 31 27 25 24 23 22 23 22 20 17 16 13 14 15 18 23 27 30 33 38 43 47 51 53 53 54 56 58 59 61 61 60 59 58 55 51 50 50 50 48
44 42 38 34 31 28 25 23 22 22 23 23 23 19 17 15 15 16 17 20 24 29 32 36 42 46 49 52 52 54 55 57 59 61 62 60 59 57 54 52 51 50 49 49
43 41 38 35 32 28 26 24 23 23 23 24 25 22 18 16 15 16 18 19 22 27 32 35 40 44 47 50 51 52 54 57 60 61 61 61 59 58 55 52 50 51 50 49
43 41 39 36 32 29 26 24 23 24 25 26 26 23 20 17 16 17 17 19 21 26 31 35 40 44 45 47 48 50 52 54 57 60 61 61 60 59 56 53 51 51 51 49
42 40 38 36 33 29 27 25 23 24 26 26 26 25 21 19 18 18 18 19 21 24 30 34 39 44 45 45 47 47 50 53 54 57 60 60 60 59 57 54 52 50 50 50
42 40 37 35 34 30 28 26 24 24 25 26 25 24 21 20 19 19 19 20 21 24 29 33 38 43 45 46 46 46 48 52 54 55 56 57 58 59 59 56 53 51 50 50
42 40 37 34 33 31 28 25 24 23 23 24 24 22 21 21 21 21 21 21 21 24 28 32 36 41 44 45 46 46 48 51 53 53 53 53 54 56 57 56 55 52 50 49
42 40 38 35 32 31 28 23 23 22 22 22 22 20 21 21 21 23 23 22 22 23 27 31 35 38 41 43 45 47 48 49 50 52 53 53 54 54 56 56 54 51 50 50
41 39 38 36 33 31 28 25 24 24 23 23 23 21 20 21 22 22 24 24 23 24 26 29 34 38 39 41 44 46 48 49 49 51 54 54 53 53 53 54 53 51 50 50
40 38 37 36 34 33 28 26 26 25 23 23 23 22 21 22 21 21 23 24 25 26 27 29 32 36 39 40 43 44 46 48 49 50 52 53 52 52 52 53 52 52 50 49
39 37 36 35 34 33 29 27 26 25 24 23 24 23 23 22 21 21 23 24 24 26 28 30 32 34 38 40 42 44 45 46 48 49 49 51 51 51 51 51 49 48 48 47
37 36 35 35 34 32 29 28 26 25 24 24 23 23 23 22 22 22 24 25 25 25 27 29 31 34 37 39 40 42 45 45 45 47 48 48 47 47 48 49 48 46 46 46
37 36 35 35 34 31 30 29 27 26 25 25 24 24 23 22 23 23 23 25 26 25 27 29 30 33 36 38 39 41 44 45 45 45 46 46 45 46 46 47 47 45 43 43
36 35 35 35 32 31 30 29 28 27 26 26 25 24 24 22 22 23 23 24 25 26 27 29 30 32 36 38 40 42 42 44 45 44 45 46 46 46 45 46 46 45 42 40
35 34 34 34 31 30 30 29 27 26 26 25 25 24 24 22 22 22 23 24 25 26 27 29 30 32 35 38 40 42 43 42 43 44 45 45 46 45 45 45 45 43 41 39
34 34 34 34 32 30 28 27 26 25 25 24 24 23 23 23 22 22 22 23 25 26 26 27 30 32 34 37 39 42 43 43 43 44 44 45 45 45 44 44 44 42 41 40
33 34 34 33 32 30 26 25 25 25 24 23 22 21 22 21 21 21 22 22 23 25 26 27 29 31 33 37 38 41 43 43 43 43 43 43 44 44 44 44 43 42 40 39
Wind_Direction
328 327 324 321 318 311 308 308 306 300 289 283 281 276 270 264 253 245 240 236 232 229 226 223 221 218 216 216 215 214 214 214 215 216 216 218 219 220 221 222 223 224 225 226
331 330 327 324 319 312 309 309 309 303 295 286 281 277 269 261 252 246 240 236 233 230 227 223 220 217 216 216 214 213 213 213 214 215 216 217 218 219 221 222 222 223 224 226
333 331 329 327 322 315 312 310 311 306 299 292 285 279 271 261 250 243 238 234 231 229 226 223 219 214 214 214 213 212 212 212 213 215 215 216 216 218 220 221 222 223 224 226
334 333 331 329 324 318 315 313 311 307 302 300 293 290 279 266 252 242 235 231 229 227 225 221 216 212 211 212 212 212 211 211 212 214 215 216 216 217 219 221 222 223 224 226
336 335 333 330 325 320 318 316 312 308 303 300 296 291 290 272 256 244 235 231 228 226 223 219 214 211 210 210 211 211 210 211 212 213 214 215 215 217 219 220 222 224 225 225
336 335 333 331 326 321 318 316 312 310 306 301 298 291 292 278 260 249 239 232 229 224 222 218 214 211 209 209 209 210 211 211 211 213 214 215 216 218 219 220 222 223 224 226
336 336 334 332 327 321 318 317 316 315 310 305 299 294 294 278 260 251 243 234 229 224 220 216 213 211 210 209 209 210 210 211 212 213 214 215 216 217 219 220 221 222 223 225
336 336 335 333 329 323 319 318 316 313 309 306 299 296 294 278 262 250 243 236 230 225 221 216 214 211 210 209 209 210 209 211 212 212 213 214 216 217 218 219 220 221 223 224
334 334 333 332 328 323 318 315 311 307 304 305 302 294 288 278 262 251 245 237 232 228 222 217 215 212 212 210 209 210 210 210 212 213 213 214 216 217 218 219 220 221 222 224
332 331 332 330 326 322 317 314 309 304 301 301 300 294 288 282 269 257 246 237 233 229 225 220 216 213 212 212 210 210 211 211 212 213 214 216 217 218 219 219 220 221 223 224
331 330 330 328 326 320 315 309 305 298 293 292 293 290 288 284 271 260 250 239 235 230 226 221 217 215 215 213 211 212 212 213 213 214 215 215 215 217 218 220 221 222 223 224
330 328 327 325 323 319 313 305 299 293 289 287 286 285 288 281 271 262 255 244 238 231 226 221 218 216 217 216 214 213 213 213 213 214 215 215 215 216 217 219 221 222 222 224
328 326 325 323 321 317 311 305 296 288 284 282 282 281 282 279 267 259 255 248 240 232 227 222 218 218 218 218 217 215 215 213 213 213 214 216 215 216 217 219 221 222 224 225
325 323 322 320 318 313 307 303 296 288 283 281 279 278 276 274 264 257 253 249 242 234 228 223 220 218 218 219 218 216 216 215 213 214 215 216 216 216 217 219 221 223 225 226
323 320 319 316 315 311 305 300 295 289 285 283 279 275 273 268 261 254 251 249 244 237 231 225 221 220 219 219 218 216 216 215 214 215 216 217 218 218 217 219 222 224 226 226
321 319 316 314 314 311 306 300 294 289 287 285 280 274 270 266 260 253 249 248 245 238 232 228 222 220 220 220 219 219 217 215 215 215 216 217 217 218 218 219 222 224 226 227
319 317 314 313 311 309 307 303 291 288 287 286 282 277 269 264 259 251 247 245 243 237 232 230 225 220 220 220 219 219 218 216 215 215 216 216 217 217 219 220 222 225 227 228
317 316 313 312 310 308 310 301 291 286 285 284 282 278 270 264 260 254 247 244 242 238 232 229 225 220 219 220 220 219 218 216 216 216 216 215 216 217 218 220 221 223 226 229
315 314 312 311 310 310 308 299 291 287 283 280 280 277 272 269 264 256 250 244 241 238 234 230 227 222 218 218 219 219 219 219 218 217 217 217 217 217 218 219 221 223 225 228
311 311 309 308 308 309 309 302 295 289 283 280 279 274 271 269 264 255 250 247 245 239 235 232 229 224 220 218 217 217 217 218 218 218 218 218 218 218 218 219 221 223 224 227
308 307 307 306 305 306 306 302 296 289 285 281 278 274 271 267 264 257 252 249 247 242 235 233 231 226 221 219 218 217 217 216 217 218 218 217 218 218 219 220 221 223 225 227
306 304 304 303 302 304 301 298 294 288 283 281 277 274 272 267 263 260 254 250 247 243 239 235 232 227 223 221 217 215 216 216 217 218 218 217 217 217 218 220 221 223 225 227
303 301 300 301 301 299 297 295 293 288 283 279 277 273 272 267 261 257 254 251 247 244 241 237 233 227 223 220 218 215 214 215 217 217 217 217 217 218 218 219 221 223 225 227
300 297 298 299 300 296 294 293 292 288 284 280 277 274 271 267 262 258 254 250 247 244 242 238 233 227 222 219 218 216 215 215 216 217 216 215 215 216 217 219 220 222 224 226
298 296 297 298 298 294 293 291 290 287 283 281 277 274 273 268 263 259 255 250 246 241 239 236 231 225 221 218 216 217 215 214 215 215 214 213 213 215 216 218 220 222 224 228
295 295 296 298 297 295 292 286 285 285 284 281 278 275 273 270 265 260 254 249 245 241 238 233 229 225 221 217 215 215 213 212 213 214 213 211 212 215 216 217 219 221 223 225
Height
5623 5616 5607 5598 5590 5584 5578 5573 5569 5567 5563 5559 5557 5557 5559 5558 5558 5560 5564 5568 5574 5580 5588 5594 5603 5613 5624 5636 5647 5658 5669 5679 5689 5698 5707 5715 5723 5730 5737 5743 5750 5755 5761 5766
5616 5608 5599 5590 5583 5577 5571 5567 5563 5560 5556 5552 5550 5551 5551 5550 5550 5552 5555 5559 5565 5570 5576 5584 5592 5602 5613 5624 5636 5647 5658 5668 5678 5689 5698 5706 5715 5722 5729 5735 5741 5747 5753 5759
5609 5601 5591 5584 5578 5572 5567 5561 5556 5553 5550 5547 5544 5545 5545 5544 5543 5545 5547 5551 5556 5561 5567 5574 5582 5592 5602 5614 5625 5637 5648 5658 5669 5678 5687 5696 5704 5711 5718 5726 5733 5740 5746 5751
5602 5594 5586 5579 5572 5566 5562 5557 5551 5547 5543 5541 5539 5536 5539 5538 5538 5539 5541 5544 5548 5553 5559 5565 5573 5583 5593 5604 5615 5626 5638 5649 5658 5668 5677 5686 5696 5704 5711 5719 5725 5732 5738 5743
5596 5588 5580 5573 5567 5561 5557 5552 5548 5543 5539 5536 5535 5532 5534 5533 5532 5533 5535 5538 5541 5546 5551 5558 5566 5575 5585 5595 5605 5616 5627 5638 5648 5659 5668 5678 5687 5695 5702 5709 5716 5723 5729 5735
5591 5583 5575 5568 5562 5557 5552 5548 5544 5540 5536 5534 5532 5529 5529 5528 5527 5528 5529 5532 5535 5540 5545 5552 5559 5567 5577 5587 5597 5607 5618 5629 5640 5650 5660 5669 5678 5686 5693 5700 5708 5715 5721 5727
5586 5578 5570 5563 5557 5553 5548 5544 5539 5535 5532 5530 5528 5526 5526 5524 5523 5523 5525 5527 5530 5534 5539 5545 5552 5561 5570 5580 5590 5600 5610 5620 5631 5641 5651 5660 5669 5677 5685 5692 5699 5707 5713 5720
5579 5574 5566 5558 5552 5548 5544 5540 5537 5532 5528 5526 5524 5523 5523 5520 5519 5519 5520 5522 5525 5529 5534 5540 5547 5555 5563 5573 5582 5592 5601 5611 5622 5632 5641 5650 5659 5668 5676 5684 5691 5699 5706 5712
5572 5568 5561 5553 5547 5543 5539 5536 5533 5528 5524 5522 5521 5520 5519 5517 5516 5516 5516 5518 5520 5524 5529 5534 5541 5549 5557 5566 5575 5584 5593 5603 5613 5623 5632 5641 5650 5659 5668 5676 5683 5690 5697 5704
5566 5561 5556 5550 5544 5539 5535 5531 5528 5524 5520 5517 5517 5515 5514 5513 5512 5512 5512 5513 5516 5519 5524 5529 5535 5542 5550 5559 5568 5576 5585 5594 5604 5614 5624 5632 5642 5651 5660 5667 5675 5682 5689 5696
5560 5554 5550 5544 5539 5534 5531 5527 5523 5519 5516 5513 5511 5514 5510 5509 5508 5508 5508 5509 5511 5514 5518 5523 5529 5536 5543 5551 5560 5568 5577 5586 5596 5606 5615 5624 5633 5642 5651 5659 5667 5674 5680 5687
5554 5548 5543 5539 5534 5529 5525 5522 5519 5516 5512 5509 5506 5509 5506 5505 5504 5503 5504 5505 5506 5509 5513 5518 5523 5530 5536 5544 5552 5561 5569 5578 5587 5597 5606 5615 5624 5634 5642 5651 5658 5666 5672 5679
5548 5542 5536 5531 5529 5523 5519 5516 5513 5509 5506 5503 5501 5504 5501 5500 5499 5499 5499 5500 5501 5503 5507 5511 5517 5523 5529 5537 5545 5553 5561 5569 5578 5587 5597 5606 5615 5625 5634 5642 5650 5657 5664 5671
5541 5536 5531 5526 5521 5516 5512 5510 5506 5503 5500 5497 5496 5495 5496 5494 5493 5493 5494 5495 5496 5498 5501 5505 5510 5516 5523 5530 5538 5545 5553 5560 5570 5579 5588 5597 5607 5616 5626 5634 5642 5649 5656 5662
5535 5530 5524 5519 5514 5509 5506 5503 5500 5496 5493 5491 5490 5488 5488 5487 5487 5488 5488 5489 5491 5492 5495 5499 5504 5510 5516 5523 5530 5538 5545 5553 5561 5570 5579 5589 5598 5608 5616 5625 5633 5640 5648 5655
5528 5522 5517 5513 5507 5502 5498 5496 5493 5490 5487 5484 5483 5483 5482 5481 5481 5482 5482 5483 5485 5486 5489 5492 5497 5502 5509 5515 5522 5530 5537 5545 5553 5563 5572 5581 5590 5599 5607 5616 5624 5632 5639 5646
5521 5515 5509 5505 5500 5495 5492 5490 5486 5483 5481 5479 5477 5477 5475 5475 5475 5475 5476 5477 5479 5480 5483 5486 5490 5495 5501 5508 5515 5522 5530 5538 5546 5555 5564 5573 5581 5590 5599 5608 5616 5624 5631 5638
5513 5507 5500 5496 5493 5488 5489 5483 5479 5477 5475 5473 5470 5470 5469 5468 5468 5469 5470 5471 5473 5474 5476 5479 5483 5488 5494 5500 5507 5515 5522 5530 5538 5547 5556 5565 5573 5582 5590 5599 5608 5615 5623 5630
5505 5499 5493 5488 5483 5480 5480 5476 5472 5469 5469 5466 5464 5464 5463 5462 5462 5463 5463 5464 5466 5467 5470 5473 5476 5481 5486 5493 5500 5507 5514 5522 5531 5539 5548 5557 5565 5573 5582 5591 5599 5607 5614 5622
5497 5491 5487 5481 5476 5473 5473 5468 5464 5463 5462 5460 5458 5457 5456 5455 5455 5457 5456 5457 5458 5460 5462 5465 5469 5474 5479 5485 5492 5499 5506 5514 5523 5532 5540 5548 5557 5565 5574 5583 5591 5598 5606 5613
5488 5483 5478 5473 5467 5465 5464 5460 5457 5456 5456 5452 5450 5449 5449 5448 5448 5449 5449 5450 5451 5453 5455 5459 5462 5467 5472 5478 5484 5491 5499 5507 5515 5524 5532 5541 5549 5557 5566 5574 5582 5590 5598 5605
5480 5475 5470 5465 5460 5461 5455 5452 5449 5448 5446 5444 5442 5442 5441 5441 5441 5441 5442 5443 5444 5446 5448 5451 5455 5460 5465 5470 5476 5484 5491 5500 5508 5516 5525 5533 5542 5550 5558 5566 5574 5582 5589 5597
5470 5467 5461 5458 5457 5452 5447 5443 5441 5439 5437 5436 5434 5434 5433 5433 5433 5434 5435 5436 5437 5439 5441 5444 5448 5452 5457 5463 5469 5477 5484 5492 5500 5508 5516 5525 5534 5542 5550 5558 5566 5574 5581 5588
5461 5456 5452 5448 5447 5443 5439 5435 5433 5431 5429 5427 5426 5426 5426 5425 5426 5426 5427 5428 5429 5431 5433 5436 5440 5445 5450 5455 5462 5469 5476 5484 5492 5500 5509 5517 5526 5534 5543 5551 5558 5566 5574 5581
5452 5447 5443 5439 5438 5434 5431 5428 5425 5423 5421 5420 5419 5418 5418 5418 5418 5418 5419 5420 5421 5423 5426 5428 5432 5436 5442 5447 5454 5461 5468 5476 5485 5493 5501 5509 5518 5526 5535 5543 5551 5559 5567 5574
5442 5438 5434 5432 5429 5425 5424 5420 5418 5416 5415 5413 5412 5411 5411 5410 5410 5411 5411 5412 5414 5416 5418 5421 5425 5429 5434 5440 5446 5453 5460 5469 5477 5486 5494 5502 5510 5519 5527 5535 5544 5551 5559 5566